Weather History for LHDC - October, 2012

Change the Weather History Date:

Tuesday, October 30, 2012

  Actual Average Record
Temperature  
Mean Temperature 37 °F -  
Max Temperature 41 °F 47 °F - ()
Min Temperature 33 °F 34 °F - ()
Degree Days  
Heating Degree Days 28    
Moisture  
Dew Point 33 °F    
Average Humidity 83    
Maximum Humidity 93    
Minimum Humidity 65    
Precipitation  
Precipitation 0.00 in 0.06 in - ()
Sea Level Pressure  
Sea Level Pressure 29.84 in    
Wind  
Wind Speed 8 mph ()    
Max Wind Speed 15 mph    
Max Gust Speed -    
Visibility 4.3 miles    
Events      
T = Trace of Precipitation, MM = Missing Value Source: Averaged Metar Reports

Daily Weather History Graph

Daily Weather History Graph

Search for Another Location

Airport or City:

Trip Planner

Search our weather history database for the weather conditions in past years. The results will help you decide how hot, cold, wet, or windy it might be!

Date:

Astronomy

Oct. 30, 2012 Rise Set
Actual Time 6:14 AM CET 4:19 PM CET
Civil Twilight 5:42 AM CET 4:51 PM CET
Nautical Twilight 5:06 AM CET 5:27 PM CET
Astronomical Twilight 4:30 AM CET 6:02 PM CET
Moon 4:31 PM CET (10/30) 6:48 AM CET (10/30)
Length of Visible Light 11h 08m
Length of Day
10h 04m
Full, 100% of the Moon is Illuminated
Oct 30
Full
Nov 7
Last Quarter
Nov 13
New
Nov 20
First Quarter
Nov 28
Full

Hourly Weather History & Observations

Time (CET) Temp. Windchill Dew Point Humidity Pressure Visibility Wind Dir Wind Speed Gust Speed Precip Events Conditions
1:00 AM 37 °F - 34 °F 86% 29.83 in - WNW 2.2 mph - -  
6:45 AM 37.4 °F 32.1 °F 35.6 °F 93% 29.80 in 1.6 mi SW 6.9 mph - N/A   Overcast
7:00 AM 38 °F - 36 °F 89% 29.82 in 2 mi SW 6.7 mph - -   Mist
7:15 AM 37.4 °F 31.4 °F 35.6 °F 93% 29.83 in 1.4 mi WSW 8.1 mph - N/A   Overcast
7:23 AM 37.4 °F 32.1 °F 35.6 °F 93% 29.83 in - WSW 6.9 mph - N/A   Unknown
7:45 AM 37.4 °F 31.4 °F 35.6 °F 93% 29.83 in 1.0 mi WSW 8.1 mph - N/A   Overcast
8:15 AM 37.4 °F 30.8 °F 35.6 °F 93% 29.83 in 1.6 mi WSW 9.2 mph - N/A   Overcast
8:45 AM 35.6 °F 29.2 °F 33.8 °F 93% 29.83 in 1.6 mi SW 8.1 mph - N/A   Light Drizzle
9:00 AM - - - N/A% - 1.6 mi SW 12.7 mph - N/A   Light Drizzle
9:15 AM 37.4 °F 31.4 °F 35.6 °F 93% 29.83 in 1.6 mi SW 8.1 mph - N/A   Light Drizzle
9:45 AM 37.4 °F 31.4 °F 33.8 °F 87% 29.83 in 2.5 mi SW 8.1 mph - N/A   Overcast
10:15 AM 37.4 °F 30.3 °F 33.8 °F 87% 29.83 in 2.5 mi SW 10.4 mph - N/A   Mostly Cloudy
10:45 AM 37.4 °F 30.3 °F 33.8 °F 87% 29.83 in 3.1 mi WSW 10.4 mph - N/A   Mostly Cloudy
11:15 AM 39.2 °F 31.2 °F 33.8 °F 81% 29.83 in 3.7 mi SW 13.8 mph - N/A   Mostly Cloudy
11:45 AM 39.2 °F 30.8 °F 33.8 °F 81% 29.83 in 5.0 mi SW 15.0 mph - N/A   Scattered Clouds
12:00 PM - - - N/A% - 6.2 mi SW 12.7 mph - N/A   Mostly Cloudy
12:15 PM 39.2 °F 32.0 °F 33.8 °F 81% 29.83 in 5.0 mi SW 11.5 mph - N/A   Scattered Clouds
12:45 PM 39.2 °F 31.6 °F 33.8 °F 81% 29.83 in 5.6 mi SW 12.7 mph - N/A   Scattered Clouds
1:00 PM 38 °F - 33 °F 75% 29.84 in 6 mi SW 11.2 mph - -   Partly Cloudy
1:15 PM 39.2 °F 31.6 °F 32.0 °F 75% 29.83 in 5.6 mi SW 12.7 mph - N/A   Scattered Clouds
1:45 PM 39.2 °F 32.0 °F 32.0 °F 75% 29.83 in 6.2 mi SW 11.5 mph - N/A   Scattered Clouds
2:15 PM 41.0 °F 35.2 °F 32.0 °F 70% 29.83 in 6.2 mi SW 9.2 mph - N/A   Mostly Cloudy
2:45 PM 41.0 °F 35.2 °F 32.0 °F 70% 29.83 in 6.2 mi WSW 9.2 mph - N/A   Mostly Cloudy
3:00 PM - - - N/A% - 6.2 mi SW 11.5 mph - N/A   Mostly Cloudy
3:15 PM 41.0 °F 34.3 °F 30.2 °F 65% 29.86 in 6.2 mi WSW 11.5 mph - N/A   Mostly Cloudy
3:45 PM 41.0 °F 35.2 °F 32.0 °F 70% 29.86 in 6.2 mi WSW 9.2 mph - N/A   Scattered Clouds
4:15 PM 39.2 °F 33.6 °F 30.2 °F 70% 29.86 in 6.2 mi SW 8.1 mph - N/A   Scattered Clouds
4:45 PM 37.4 °F 31.4 °F 30.2 °F 75% 29.86 in 6.2 mi SW 8.1 mph - N/A   Partly Cloudy
5:15 PM 35.6 °F 29.2 °F 30.2 °F 81% 29.89 in 6.2 mi SSW 8.1 mph - N/A   Partly Cloudy
5:45 PM 33.8 °F 27.0 °F 30.2 °F 87% 29.89 in - SW 8.1 mph - N/A   Clear
6:15 PM 35.6 °F 28.6 °F 32.0 °F 87% 29.89 in 6.2 mi SSW 9.2 mph - N/A   Mostly Cloudy
6:45 PM 35.6 °F 29.9 °F 32.0 °F 87% 29.89 in 6.2 mi South 6.9 mph - N/A   Mostly Cloudy
7:00 PM - - - N/A% - - North - - N/A   Unknown